Location: Betpouey
(42.8833°N, 0.0333°E)
Time: 07:28:42
(UTC+00:00)

Radarsat Rocket - Pass Details

Date: 01 December 2020
Orbit: 933 x 1491 km, 100.6° (Epoch: 17 January)

Event Time Altitude Azimuth Distance (km) Brightness Sun altitude
Rises 17:18:18 0° 166° (SSE) 3,632 7.1 -9.4°
Reaches altitude 10° 17:20:39 10° 168° (SSE) 2,726 6.5 -9.8°
Maximum altitude 17:26:44 77° 255° (WSW) 1,081 4.4 -10.8°
Drops below altitude 10° 17:33:36 10° 341° (NNW) 3,061 6.6 -12.0°
Sets 17:36:21 0° 343° (NNW) 4,108 7.2 -12.5°
